Weather at Stennis International Airport

Public forecast

Using degrees Fahrenheit for public forecast. Weather courtesy of forecast.io.

Current aviation weather report (METAR) for Stennis International Airport

Retrieved 2020/11/27 14:50 UTC (1 hour ago):

KHSA 271450Z 12004KT 1/4SM FG OVC003 20/20 A3008

Aviation forecast (TAF) for Stennis International Airport

Forecast is more than 12 hours old.

Retrieved 2012/07/18 18:57 UTC (8 years ago):

TAF COR KHSA 181754Z 1818/1918 18005KT P6SM VCSH SCT040 BKN200 TEMPO 1819/1823 VRB15G25KT 3SM TSRA BKN030CB OVC060 FM190200 VRB03KT P6SM SCT040 BKN200 FM191500 31005KT P6SM SCT025 AMD NOT SKED AFT 190000